Weather in Bashkortostan

Russia / Republic of Bashkortostan     56°14′37″N   56°15′03″E
temp.,
°C
wind,
m/s
gust,
m/s
humid.,
%
clouds,
%
prec.,
mm/h
press.,
hPa
HPBL,
m
28 february, sun
sun2823:00−13e6119298 0.9 1004318
02:00−13e599499 0.3 1003282
05:00−13e599496 0.4 1003313
08:00−13ene4993100 0.3 1003354
11:00−11ene589299 0.6 1003409
14:00−8ene479198 0.3 1004510
17:00−8ne579099 0.4 1005531
20:00−11ne489392 0.1 1007256
1 march, mon
mon123:00−13ne479384 0.1 1009190
02:00−14ne379475 0.1 1011248
05:00−15ne369482 0.1 1013301
08:00−16nne3696100 0.2 1014182
11:00−14ne359089 0.3 1016400
14:00−11nne2383100 0.1 1016548
17:00−11nw2389100 0.2 1017366
20:00−15wnw229699 0.0 101720
2 march, tue
tue223:00−17sw339990 0.1 101840
02:00−19ssw3699100 0.1 1016135
05:00−21ssw41099100 0.1 1015212
08:00−20s61196100 0.0 1012318
11:00−17s71394100 0.1 1009406
14:00−14ssw81494100 0.7 1006540
17:00−12s71392100 1.2 1003631
20:00−11s71494100 0.7 1002561
3 march, wed
wed323:00−11s61493100 1.1 1000490
02:00−9s51394100 0.6 998446
05:00−7s51295100 1.3 998346
08:00−4sw5996100 0.8 998354
11:00−6w479396 1.0 999324
14:00−2wsw579597 0.4 999567
17:00−3w579198 0.6 1000646
20:00−5w4896100 0.4 1001337
4 march, thu
thu423:00−9w479699 0.5 1003180
02:00−11wnw479699 0.1 1003177
05:00−14wsw239898 0.2 100445
08:00−13sw3696100 0.3 1005169
11:00−10sw4695100 0.5 1004300
14:00−7sw5993100 0.1 1003548
17:00−6ssw71092100 0.3 1002658
20:00−6ssw81494100 0.5 999759